Regional Weather Roundup
Issued by NWS

Home | Current Version | Previous Version | Text Only | Print | Product List | Glossary Off
Versions: 1 2 3 4 5 6 7 8 9 10 11 12 13 14 15 16 17 18 19 20 21 22 23 24 25 26 27 28 29 30 31 32 33 34 35 36 37 38 39 40 41 42 43 44 45 46 47 48 49 50

000
ASUS43 KDMX 061706
RWRIA

WEATHER ROUNDUP FOR IOWA
NATIONAL WEATHER SERVICE DES MOINES IA
1100 AM CST TUE DEC 06 2016

NOTE: "FAIR" INDICATES FEW OR NO CLOUDS BELOW 12,000 FEET WITH NO
SIGNIFICANT WEATHER AND/OR OBSTRUCTIONS TO VISIBILITY.

* - THESE STATIONS ARE NOT NWS STATIONS...THUS NOT UNDER NWS
QUALITY CONTROL.  THEY ALSO DO NOT REPORT WEATHER SUCH
AS PRECIPITATION OR FOG.

IAZ001>003-012>014-020>022-031>034-043>046-061800-
   NORTHWEST IOWA

CITY           SKY/WX    TMP DP  RH WIND       PRES   REMARKS
CHEROKEE *     MOSUNNY   22  11  62 W20G30    29.95R WCI   7
DENISON *      SUNNY     27  14  59 W17G25    29.95S WCI  14
LE MARS *      PTSUNNY   21  10  63 W18G29    29.98R WCI   6
ORANGE CITY *  MOSUNNY   21  12  68 W29G36    29.91R WCI   3
SIOUX CITY     SUNNY     26  11  52 NW22G30   29.98R WCI  12
SPENCER        PTSUNNY   22  10  60 W38G46    29.87S WCI   2
$$

IAZ055>058-069>071-079>083-090>094-061800-
   SOUTHWEST IOWA

CITY           SKY/WX    TMP DP  RH WIND       PRES   REMARKS
ATLANTIC *     SUNNY     27  16  63 W20       29.99S WCI  13
CLARINDA *       N/A     30  16  55 NW15      30.05S WCI  19
COUNCIL BLFS * SUNNY     28  14  54 NW16G23   30.01S WCI  17
CRESTON *      SUNNY     27  14  59 NW20      29.99R WCI  13
LAMONI         SUNNY     30  18  60 W20       29.98S WCI  17
RED OAK *      SUNNY     28  14  54 W15G23    30.03R WCI  17
SHENANDOAH *   SUNNY     30  14  51 NW14G20   30.05F WCI  20
$$

IAZ047>049-059>061-072>074-084-061800-
   CENTRAL IOWA

CITY           SKY/WX    TMP DP  RH WIND       PRES   REMARKS
AMES           SUNNY     26  18  71 W18G24    29.94S WCI  13
ANKENY *       SUNNY     28  16  59 W14G21    29.97R WCI  17
BOONE *        SUNNY     25  16  68 W21G29    29.92S WCI  10
CHARITON *       N/A     30  18  59 W20       29.95S WCI  18
DES MOINES     MOSUNNY   29  14  53 W22       29.97R WCI  15
GRINNELL*      SUNNY     28  22  76 W20G25    29.93R WCI  15
KNOXVILLE *    SUNNY     30  16  55 W20G26    29.94R WCI  18
MARSHALLTOWN   SUNNY     26  20  77 W20       29.90F WCI  12
NEWTON *       SUNNY     27  18  69 W16G25    29.94R WCI  14
PELLA *        SUNNY     31  18  59 NW10G24   29.95S WCI  22
$$

IAZ004>006-015-016-023>025-035-036-061800-
   NORTH CENTRAL IOWA

CITY           SKY/WX    TMP DP  RH WIND       PRES   REMARKS
ALGONA *       PTSUNNY   23  14  68 W25G33    29.86S WCI   7
CLARION *      PTSUNNY   23  18  80 W20G28    29.89S WCI   8
ESTHERVILLE    CLOUDY    20  12  71 W28G39    29.83S WCI   2
FORT DODGE *   MOSUNNY   25  16  68 W20       29.91F WCI  11
MASON CITY     MOSUNNY   22  15  75 W23G32    29.86S WCI   6
WEBSTER CITY * MOSUNNY   25  18  74 W24       29.89F WCI   9
$$

IAZ007>011-017>019-026>030-037>042-050>054-066-061800-
   NORTHEAST IOWA

CITY           SKY/WX    TMP DP  RH WIND       PRES   REMARKS
CEDAR RAPIDS   MOSUNNY   30  24  78 NW23G29   29.88S WCI  17
CHARLES CITY * PTSUNNY   23  18  80 W18G24    29.85S WCI   9
CLINTON *      CLOUDY    33  32  96 NW18      29.84S FOG     WCI  22
DECORAH *      MOSUNNY   25  18  74 W13G20    29.80F WCI  13
DUBUQUE        CLOUDY    30  27  88 W16       29.82R WCI  19
MONTICELLO *   SUNNY     32  25  74 W17G24    29.85R WCI  21
OELWEIN *      SUNNY     25  19  80 W21       29.85S WCI  10
WATERLOO       MOSUNNY   26  19  74 W18G25    29.87S WCI  13
$$

IAZ064-065-067-068-078-061800-
   EAST CENTRAL IOWA

CITY           SKY/WX    TMP DP  RH WIND       PRES   REMARKS
DAVENPORT      CLOUDY    33  29  85 W23       29.86R WCI  21
IOWA CITY      SUNNY     34  22  61 NW14G23   29.91R WCI  25
MUSCATINE *    CLOUDY    36  28  75 NW16G24   29.89R WCI  26
QUAD CITIES    CLOUDY    34  30  85 W16       29.85R WCI  24
$$

IAZ062-063-075>077-085>089-095>099-061800-
   SOUTHEAST IOWA

CITY           SKY/WX    TMP DP  RH WIND       PRES   REMARKS
BURLINGTON     PTSUNNY   36  30  79 NW14G22   29.89R WCI  27
FAIRFIELD *    MOSUNNY   34  25  69 NW20G25   29.91S WCI  22
FORT MADISON * PTSUNNY   36  30  80 NW21      29.91R WCI  24
KEOKUK *       PTSUNNY   39  28  65 NW14G21   29.91R WCI  31
OSKALOOSA *      N/A     32  21  65 W23G29    29.93S WCI  19
OTTUMWA        SUNNY     33  19  56 NW20G28   29.93R WCI  21
WASHINGTON *   MOSUNNY   34  25  69 NW18G30   29.92R WCI  23
$$

ABBREVIATIONS USED IN REMARKS
   TC - TEMPERATURES IN CELSIUS
  WCI - WIND CHILL INDEX
   HX - HEAT INDEX
  VSB - VISIBILITY
$$





USA.gov is the U.S. government's official web portal to all federal, state and local government web resources and services.